Weather in Piter

Russia / Kostroma Oblast     59°16′51″N   46°34′12″E
temp.,
°C
wind,
m/s
gust,
m/s
humid.,
%
clouds,
%
prec.,
mm/h
press.,
hPa
HPBL,
m
7 may, fri
fri700:00+9s41294100 0.1 1007364
03:00+9s5149378 0.1 1007561
06:00+10s41293100 0.0 1007651
09:00+11ssw41087100 0.2 1008976
12:00+12wsw3676100 0.4 1008865
15:00+9w3580100 0.5 1009530
18:00+6wsw2792100 1.3 1010760
21:00+6sw389554 1.6 1012283
8 may, sat
sat800:00+3sw26950 0.0 1014129
03:00+2sw26934 0.0 1016102
06:00+5sw248495 0.0 1017140
09:00+11s346215 0.0 1017646
12:00+14sse45425 0.0 10161819
15:00+14sse5739100 0.0 10142019
18:00+12se4954100 0.0 1013643
21:00+8se2977100 0.0 1012201
9 may, sun
sun900:00+9sse31185100 0.1 1010498
03:00+9se31095100 0.5 1009387
06:00+9se41195100 0.8 1009507
09:00+10sse41293100 2.1 1009679
12:00+10sse51393100 2.4 1009884
15:00+12sse41193100 2.9 1011881
18:00+11s2698100 5.4 1011276
21:00+10wnw2599100 16.9 1013212
10 may, mon
mon1000:00+9nw3698100 3.0 1015341
03:00+7nnw4896100 4.9 1019472
06:00+6nnw4895100 1.6 1022508
09:00+8n468159 1.9 1025789
12:00+12n45535 0.0 10261295
15:00+13n34411 0.0 10271588
18:00+12nnw135681 0.0 1028117
21:00+8wnw116812 0.0 102910
11 may, tue
tue1100:00+6w117543 0.0 103010
03:00+6wsw1176100 0.0 103113
06:00+9sw2369100 0.0 1031139
09:00+11wsw246098 0.0 1032356
12:00+16wsw345247 0.0 1031903
15:00+19wsw345161 0.0 10291484
18:00+17wsw256712 0.0 1029165
21:00+12wsw228658 0.0 103027